GW6609 Weather Reports


time (UTC)temp
F
wind
direction
speed
knots
gust
knots
rain 1hr
in
rain 24hr
in
rain mn
in
humidity
%
barometer
mb
20260509034114 83 120 2.6 4.3 0.00 0.00 0.01 80 1009.0
20260509033614 83 238 1.7 2.6 0.00 0.00 0.01 80 1009.0
20260509033114 83 159 2.6 2.6 0.00 0.00 0.01 81 1009.0
20260509032614 83 171 2.6 4.3 0.00 0.00 0.01 81 1009.0
20260509032114 83 153 2.6 4.3 0.00 0.00 0.01 80 1009.0
20260509031614 84 113 1.7 1.7 0.00 0.00 0.01 80 1009.0
20260509031115 84 41 1.7 1.7 0.00 0.00 0.01 79 1009.0
20260509030615 84 101 1.7 2.6 0.00 0.00 0.01 79 1009.0
20260509030114 85 109 3.5 4.3 0.00 0.00 0.01 78 1009.0
20260509025614 85 87 2.6 4.3 0.00 0.00 0.01 78 1009.0
20260509025114 84 226 2.6 4.3 0.00 0.00 0.01 79 1009.0
20260509024615 83 92 2.6 4.3 0.00 0.00 0.01 82 1008.0
20260509024114 83 184 2.6 4.3 0.00 0.00 0.01 82 1008.0
20260509023614 82 90 1.7 1.7 0.00 0.00 0.01 84 1009.0
20260509023115 81 101 0.0 0.9 0.00 0.00 0.01 87 1008.0
20260509022615 80 90 0.9 0.9 0.00 0.00 0.01 87 1008.0
20260509022114 80 89 0.0 0.0 0.00 0.00 0.01 88 1008.0
20260509021614 80 94 1.7 1.7 0.00 0.00 0.01 88 1008.0
20260509021114 80 89 1.7 1.7 0.00 0.00 0.01 89 1008.0
20260509020614 79 95 0.9 0.9 0.00 0.00 0.01 89 1008.0
20260509020114 79 97 0.9 0.9 0.00 0.00 0.01 89 1008.0
20260509015614 79 95 0.0 0.0 0.00 0.00 0.01 90 1008.0
20260509015114 79 98 0.9 0.9 0.00 0.00 0.01 90 1008.0
20260509014614 79 98 0.0 0.0 0.00 0.00 0.01 90 1008.0
20260509014116 79 102 0.0 0.0 0.00 0.00 0.01 90 1008.0
20260509013614 78 107 0.9 0.9 0.00 0.00 0.01 90 1007.0
20260509013115 78 95 0.0 0.9 0.00 0.00 0.01 90 1007.0
20260509012614 78 94 0.9 0.9 0.00 0.00 0.01 90 1007.0
20260509012115 78 91 0.9 0.9 0.07 0.00 0.01 90 1007.0
20260509011614 78 91 0.9 0.9 0.07 0.00 0.01 90 1007.0
20260509011114 78 99 1.7 2.6 0.00 0.00 0.00 90 1007.0
20260509010614 78 94 0.0 0.9 0.00 0.00 0.00 90 1007.0
20260509010114 78 87 0.0 0.0 0.00 0.00 0.00 90 1007.0
20260509005614 78 80 0.9 0.9 0.00 0.00 0.00 89 1007.0
20260509005115 78 98 0.9 1.7 0.00 0.00 0.00 89 1007.0
20260509004616 78 102 0.9 0.9 0.00 0.00 0.00 89 1007.0
20260509004114 78 87 0.9 0.9 0.00 0.00 0.00 89 1007.0
20260509003614 78 79 0.0 0.0 0.00 0.00 0.00 89 1007.0
20260509003114 78 81 0.9 1.7 0.00 0.00 0.00 89 1007.0
20260509002615 78 79 0.9 1.7 0.00 0.00 0.00 89 1007.0
20260509002114 78 93 0.9 1.7 0.00 0.00 0.00 89 1007.0
20260509001614 79 72 1.7 1.7 0.00 0.00 0.00 89 1007.0
20260509001114 79 103 1.7 1.7 0.00 0.00 0.00 88 1007.0
20260509000614 79 104 0.9 0.9 0.00 0.00 0.00 88 1006.0
20260509000115 79 85 1.7 1.7 0.00 0.00 0.00 87 1007.0
20260508235614 79 96 1.7 1.7 0.00 0.00 0.00 87 1007.0
20260508235115 79 164 2.6 2.6 0.00 0.00 0.00 86 1006.0
20260508234615 79 92 2.6 2.6 0.00 0.00 0.00 86 1007.0
20260508234114 79 78 0.9 0.9 0.00 0.00 0.00 86 1006.0
20260508233614 79 80 0.9 0.9 0.00 0.00 0.00 86 1006.0
20260508233114 79 75 0.9 0.9 0.00 0.00 0.00 86 1006.0
20260508232614 79 74 0.9 0.9 0.00 0.00 0.00 86 1006.0
20260508232114 79 74 0.9 0.9 0.00 0.00 0.00 86 1006.0
20260508231616 80 64 0.0 0.9 0.00 0.00 0.00 86 1006.0
20260508231115 80 68 0.0 0.9 0.00 0.00 0.00 86 1006.0
20260508230614 80 103 0.9 1.7 0.00 0.00 0.00 85 1006.0
20260508230114 79 112 1.7 1.7 0.00 0.00 0.00 86 1006.0
20260508225614 79 142 3.5 4.3 0.00 0.00 0.00 87 1006.0
20260508225114 79 98 2.6 2.6 0.00 0.00 0.00 88 1006.0
20260508224615 79 54 0.0 0.9 0.00 0.00 0.00 88 1006.0
20260508224114 79 22 2.6 2.6 0.00 0.00 0.00 88 1006.0
20260508223615 79 56 0.9 1.7 0.00 0.00 0.00 88 1006.0
20260508223115 79 84 0.9 1.7 0.00 0.00 0.00 88 1006.0
20260508222614 79 77 0.9 0.9 0.00 0.00 0.00 88 1006.0
20260508222115 79 73 0.0 0.9 0.00 0.00 0.00 88 1006.0
20260508221615 79 74 0.0 0.0 0.00 0.00 0.00 88 1006.0
20260508221114 79 78 0.9 0.9 0.00 0.00 0.00 88 1006.0
20260508220616 79 74 0.0 0.0 0.00 0.00 0.00 89 1006.0
20260508220114 79 75 1.7 2.6 0.00 0.00 0.00 89 1006.0
20260508215615 79 73 0.0 0.0 0.00 0.00 0.00 89 1006.0
20260508215114 79 72 0.0 0.0 0.00 0.00 0.00 89 1006.0
20260508214614 79 73 0.0 0.9 0.00 0.00 0.00 89 1006.0
20260508214114 79 75 0.0 0.0 0.00 0.00 0.00 89 1006.0
20260508213614 79 76 0.9 0.9 0.00 0.00 0.00 89 1006.0
20260508213114 79 78 0.0 0.0 0.00 0.00 0.00 89 1006.0
20260508212615 79 72 0.0 0.9 0.00 0.00 0.00 89 1006.0
20260508212115 79 117 0.9 1.7 0.00 0.00 0.00 89 1006.0
20260508211614 79 75 2.6 2.6 0.00 0.00 0.00 89 1006.0
20260508211115 79 74 0.0 0.9 0.00 0.00 0.00 89 1006.0
20260508210614 79 96 1.7 1.7 0.00 0.00 0.00 89 1006.0
20260508210115 79 83 0.9 0.9 0.00 0.00 0.00 89 1006.0
20260508205614 79 83 0.9 1.7 0.00 0.00 0.00 89 1006.0
20260508205114 79 85 0.9 1.7 0.00 0.00 0.00 89 1006.0
20260508204618 79 78 0.9 0.9 0.00 0.00 0.00 89 1006.0
20260508204115 79 76 0.0 0.0 0.00 0.00 0.00 88 1006.0
20260508203615 79 81 0.0 0.0 0.00 0.00 0.00 88 1006.0
20260508203114 79 81 0.0 0.0 0.00 0.00 0.00 88 1006.0
20260508202614 79 78 0.0 0.9 0.00 0.00 0.00 88 1006.0
20260508202114 79 75 0.0 0.0 0.00 0.00 0.00 88 1006.0
20260508201614 79 78 0.0 0.0 0.00 0.00 0.00 88 1006.0
20260508201115 80 81 0.9 0.9 0.00 0.00 0.00 88 1006.0
20260508200615 80 83 0.0 0.9 0.00 0.00 0.00 88 1006.0
20260508200115 80 83 0.0 0.0 0.00 0.00 0.00 88 1006.0
20260508195616 80 83 0.0 0.0 0.00 0.00 0.00 88 1006.0
20260508195114 80 83 0.0 0.0 0.00 0.00 0.00 88 1006.0
20260508194615 80 83 0.0 0.9 0.00 0.00 0.00 88 1007.0
20260508194115 80 83 0.0 0.9 0.00 0.00 0.00 88 1007.0
20260508193614 80 83 0.0 0.0 0.00 0.00 0.00 88 1007.0
20260508193117 80 82 0.0 0.0 0.00 0.00 0.00 88 1007.0
20260508192614 80 83 0.0 0.9 0.00 0.00 0.00 88 1007.0
20260508192114 80 83 0.0 0.9 0.00 0.00 0.00 88 1007.0
20260508191616 80 83 0.0 0.0 0.00 0.00 0.00 88 1007.0
20260508191114 80 83 0.0 0.0 0.00 0.00 0.00 88 1007.0
20260508190615 80 83 0.9 0.9 0.00 0.00 0.00 88 1007.0
20260508190115 80 83 0.0 0.0 0.00 0.00 0.00 88 1007.0
20260508185615 80 83 0.0 0.0 0.00 0.00 0.00 88 1007.0
20260508185114 80 83 0.0 0.0 0.00 0.00 0.00 88 1007.0
20260508184615 80 84 0.0 0.0 0.00 0.00 0.00 88 1007.0
20260508184115 80 84 0.9 0.9 0.00 0.00 0.00 88 1007.0
20260508183615 80 81 0.0 0.0 0.00 0.00 0.00 88 1007.0
20260508183115 80 81 0.9 0.9 0.00 0.00 1.38 88 1008.0
20260508182614 80 81 0.9 0.9 0.00 0.00 1.38 87 1008.0
20260508182115 80 81 0.0 0.0 0.00 0.00 1.38 87 1008.0
20260508181614 80 81 0.0 0.9 0.00 0.00 1.38 87 1008.0
20260508181115 80 81 0.0 0.0 0.00 0.00 1.38 87 1008.0
20260508180614 80 81 0.0 0.0 0.00 0.00 1.38 87 1008.0
20260508180115 80 81 0.0 0.0 0.00 0.00 1.38 87 1008.0
20260508175614 80 81 0.0 0.0 0.00 0.00 1.38 87 1008.0
20260508175115 80 81 0.0 0.9 0.00 0.00 1.38 87 1008.0
20260508174614 80 81 0.9 0.9 0.00 0.00 1.38 87 1008.0
20260508174114 80 80 0.0 0.0 0.00 0.00 1.38 87 1008.0
20260508173614 80 80 0.0 0.0 0.00 0.00 1.38 87 1008.0
20260508173117 80 80 0.0 0.9 0.00 0.00 1.38 87 1008.0
20260508172614 80 80 0.0 0.0 0.00 0.00 1.38 87 1008.0
20260508172114 80 80 0.0 0.9 0.00 0.00 1.38 87 1008.0
20260508171614 80 77 0.0 0.0 0.00 0.00 1.38 87 1008.0
20260508171116 80 77 0.0 0.0 0.00 0.00 1.38 87 1008.0
20260508170615 80 77 0.0 0.0 0.00 0.00 1.38 88 1008.0
20260508170115 80 77 0.0 0.0 0.00 0.00 1.38 87 1008.0
20260508165615 80 77 0.0 0.0 0.00 0.00 1.38 87 1008.0
20260508165114 80 78 0.9 0.9 0.00 0.00 1.38 87 1008.0
20260508164614 80 74 0.0 0.9 0.00 0.00 1.38 87 1008.0
20260508164114 80 73 0.9 0.9 0.00 0.00 1.38 87 1008.0
20260508163615 81 73 0.9 0.9 0.00 0.00 1.38 86 1008.0
20260508163115 81 74 0.9 0.9 0.00 0.00 1.38 86 1008.0
20260508162615 81 74 0.0 0.9 0.00 0.00 1.38 85 1008.0
20260508162114 80 56 0.0 0.0 0.00 0.00 1.38 85 1008.0
20260508161615 80 56 0.0 0.0 0.00 0.00 1.38 85 1008.0
20260508161114 80 56 0.0 0.0 0.00 0.00 1.38 85 1008.0
20260508160616 80 55 0.0 0.0 0.00 0.00 1.38 85 1008.0
20260508160115 80 55 0.0 0.9 0.00 0.00 1.38 85 1008.0
20260508155615 80 55 0.0 0.0 0.00 0.00 1.38 85 1008.0
20260508155115 80 55 0.0 0.0 0.00 0.00 1.38 85 1008.0
20260508154615 81 68 0.9 0.9 0.00 0.00 1.38 85 1008.0
20260508154115 81 59 0.9 0.9 0.00 0.00 1.38 85 1008.0
20260508153615 81 82 0.0 0.0 0.00 0.00 1.38 84 1008.0
20260508153114 81 82 0.0 0.9 0.00 0.00 1.38 84 1008.0
20260508152615 81 82 0.0 0.0 0.00 0.00 1.38 84 1008.0
20260508152114 81 82 0.0 0.0 0.00 0.00 1.38 84 1008.0
20260508151615 81 82 0.0 0.0 0.00 0.00 1.38 84 1008.0
20260508151115 81 82 0.9 0.9 0.00 0.00 1.38 84 1008.0
20260508150616 81 81 0.9 0.9 0.00 0.00 1.38 83 1008.0
20260508150114 81 81 0.9 0.9 0.00 0.00 1.38 83 1008.0
20260508145614 81 81 0.0 0.0 0.00 0.00 1.38 83 1008.0
20260508145115 81 80 0.0 0.0 0.00 0.00 1.38 83 1007.0
20260508144616 81 79 0.0 0.0 0.00 0.00 1.38 83 1007.0
20260508144114 81 77 0.0 0.9 0.00 0.00 1.38 83 1007.0
20260508143615 81 73 0.0 0.0 0.00 0.00 1.38 83 1007.0
20260508143115 81 72 0.0 0.0 0.00 0.00 1.38 83 1007.0
20260508142615 81 93 0.9 0.9 0.00 0.00 1.38 82 1007.0
20260508142115 81 75 0.0 0.0 0.00 0.00 1.38 82 1007.0
20260508141614 81 87 0.9 0.9 0.00 0.00 1.38 82 1007.0
20260508141115 81 73 0.0 0.0 0.00 0.00 1.38 82 1007.0
20260508140614 81 76 0.9 0.9 0.00 0.00 1.38 81 1007.0
20260508140114 82 67 0.0 0.0 0.00 0.00 1.38 81 1007.0
20260508135614 82 79 0.9 1.7 0.00 0.00 1.38 80 1007.0
20260508135114 82 73 0.9 0.9 0.00 0.00 1.38 79 1007.0
20260508134614 82 62 0.9 1.7 0.00 0.00 1.38 79 1007.0
20260508134114 82 48 1.7 2.6 0.00 0.00 1.38 79 1006.0
20260508133616 82 179 1.7 2.6 0.00 0.00 1.38 79 1007.0
20260508133114 82 64 0.0 0.9 0.00 0.00 1.38 79 1006.0
20260508132615 82 71 1.7 1.7 0.00 0.00 1.38 79 1006.0
20260508132114 82 21 3.5 4.3 0.00 0.00 1.38 79 1006.0
20260508131614 82 119 1.7 2.6 0.00 0.00 1.38 79 1006.0
20260508131115 82 43 2.6 2.6 0.00 0.00 1.38 79 1006.0
20260508130615 82 72 2.6 4.3 0.00 0.00 1.38 79 1007.0
20260508130116 82 104 2.6 2.6 0.00 0.00 1.38 78 1007.0
20260508125615 83 246 4.3 6.1 0.00 0.00 1.38 77 1006.0
20260508125115 83 174 3.5 4.3 0.00 0.00 1.38 77 1006.0
20260508124614 83 225 7.8 7.8 0.00 0.00 1.38 76 1006.0
20260508124114 83 274 4.3 5.2 0.00 0.00 1.38 77 1006.0
20260508123614 83 266 2.6 2.6 0.00 0.00 1.38 77 1006.0
20260508123114 83 67 3.5 4.3 0.00 0.00 1.38 77 1006.0
20260508122614 83 315 1.7 4.3 0.00 0.00 1.38 76 1006.0
20260508122115 83 56 2.6 4.3 0.00 0.00 1.38 76 1006.0
20260508121615 83 231 6.1 7.8 0.00 0.00 1.38 76 1006.0
20260508121115 83 128 2.6 2.6 0.00 0.00 1.38 75 1006.0
20260508120614 83 69 3.5 4.3 0.00 0.00 1.38 75 1006.0
20260508120115 84 277 2.6 5.2 0.00 0.00 1.38 75 1006.0
20260508115615 84 76 1.7 2.6 0.00 0.00 1.38 75 1005.0
20260508115114 84 94 0.9 1.7 0.00 0.00 1.38 74 1006.0
20260508114616 84 261 5.2 6.1 0.00 0.00 1.38 73 1006.0
20260508114115 84 53 0.9 0.9 0.00 0.00 1.38 73 1006.0
20260508113615 84 103 2.6 4.3 0.00 0.00 1.38 73 1005.0
20260508113115 84 270 3.5 4.3 0.00 0.00 1.38 74 1005.0
20260508112614 84 223 2.6 4.3 0.00 0.00 1.38 74 1005.0
20260508112114 84 26 2.6 5.2 0.00 0.00 1.38 74 1005.0
20260508111614 84 234 3.5 4.3 0.00 0.00 1.38 73 1005.0
20260508111114 84 55 2.6 4.3 0.00 0.00 1.38 74 1005.0
20260508110614 85 186 1.7 2.6 0.00 0.00 1.38 74 1005.0
20260508110114 85 59 0.9 0.9 0.00 0.00 1.38 73 1005.0
20260508105615 85 60 2.6 4.3 0.00 0.00 1.38 73 1005.0
20260508105115 85 208 5.2 6.1 0.00 0.00 1.38 74 1005.0
20260508104614 84 140 4.3 5.2 0.00 0.00 1.38 74 1005.0
20260508104115 85 240 4.3 5.2 0.00 0.00 1.38 74 1005.0
20260508103615 85 247 4.3 7.8 0.00 0.00 1.38 74 1005.0
20260508103114 85 31 3.5 5.2 0.00 0.00 1.38 77 1005.0
20260508102614 85 69 1.7 1.7 0.00 0.00 1.38 77 1005.0
20260508102115 85 271 5.2 6.1 0.00 0.00 1.38 76 1005.0
20260508101614 85 127 4.3 6.1 0.00 0.00 1.38 77 1005.0
20260508101114 85 16 2.6 2.6 0.00 0.00 1.38 77 1005.0
20260508100615 85 73 1.7 2.6 0.00 0.00 1.38 77 1005.0
20260508100116 85 62 2.6 4.3 0.00 0.00 1.38 76 1005.0
20260508095615 85 280 2.6 7.0 0.00 0.00 1.38 77 1005.0
20260508095115 85 232 4.3 6.1 0.00 0.00 1.38 76 1005.0
20260508094615 85 249 4.3 7.0 0.00 0.00 1.38 76 1005.0
20260508094115 85 129 1.7 2.6 0.00 0.00 1.38 77 1006.0
20260508093615 85 54 2.6 4.3 0.00 0.00 1.38 77 1006.0
20260508093114 85 213 2.6 4.3 0.00 0.00 1.38 77 1006.0
20260508092614 85 331 2.6 2.6 0.00 0.00 1.38 77 1006.0
20260508092114 85 96 2.6 4.3 0.00 0.00 1.38 79 1005.0
20260508091616 85 63 3.5 5.2 0.00 0.00 1.38 79 1005.0
20260508091116 85 63 2.6 2.6 0.00 0.00 1.38 79 1005.0
20260508090615 84 25 3.5 4.3 0.00 0.00 1.38 80 1006.0
20260508090114 83 276 3.5 6.1 0.00 0.00 1.38 83 1006.0
20260508085615 82 346 2.6 4.3 0.00 0.00 1.38 86 1005.0
20260508085114 81 204 4.3 6.1 0.00 0.00 1.38 89 1005.0
20260508084614 81 332 4.3 5.2 0.00 0.00 1.38 90 1006.0
20260508084114 80 24 0.9 0.9 0.00 0.00 1.38 90 1005.0
20260508083616 79 45 1.7 1.7 0.00 0.00 1.38 90 1005.0
20260508083116 78 47 0.9 0.9 0.00 0.00 1.38 90 1006.0
20260508082616 78 54 1.7 1.7 0.00 0.00 1.38 89 1006.0
20260508082116 78 60 0.0 0.9 0.00 0.00 1.38 90 1006.0
20260508081615 76 60 0.0 0.0 0.00 0.00 1.38 90 1006.0
20260508081114 76 61 0.0 0.9 0.00 0.00 1.38 90 1006.0
20260508080614 76 60 0.9 1.7 0.00 0.00 1.38 90 1006.0
20260508080114 75 66 0.9 1.7 0.05 0.00 1.38 90 1006.0
20260508075615 75 65 0.0 0.9 0.78 0.00 1.38 90 1007.0
20260508075114 75 70 0.0 0.0 1.21 0.00 1.37 90 1006.0
20260508074614 74 60 0.9 0.9 1.87 0.00 1.28 90 1007.0
20260508074114 74 100 1.7 2.6 3.54 0.00 1.17 90 1007.0
20260508073614 77 64 5.2 7.0 5.27 0.00 0.95 90 1007.0
20260508073114 78 152 7.0 9.6 3.28 0.00 0.55 89 1007.0
20260508072615 83 205 14.8 23.5 0.35 0.00 0.06 83 1007.0
20260508072114 88 76 2.6 4.3 0.00 0.00 0.00 66 1007.0
20260508071614 88 53 1.7 1.7 0.00 0.00 0.00 66 1006.0
20260508071114 88 72 0.9 0.9 0.00 0.00 0.00 68 1006.0
20260508070614 87 64 0.0 0.9 0.00 0.00 0.00 68 1006.0
20260508070114 87 133 1.7 1.7 0.00 0.00 0.00 72 1006.0
20260508065615 89 95 0.9 1.7 0.00 0.00 0.00 65 1006.0
20260508065114 90 190 2.6 4.3 0.00 0.00 0.00 62 1006.0
20260508064615 90 251 5.2 6.1 0.00 0.00 0.00 60 1006.0
20260508064114 91 316 3.5 5.2 0.00 0.00 0.00 60 1007.0
20260508063614 90 51 3.5 5.2 0.00 0.00 0.00 60 1007.0
20260508063114 91 246 4.3 5.2 0.00 0.00 0.00 59 1007.0
20260508062614 92 196 5.2 7.0 0.00 0.00 0.00 58 1007.0
20260508062114 93 241 5.2 6.1 0.00 0.00 0.00 57 1007.0
20260508061614 93 81 1.7 1.7 0.00 0.00 0.00 55 1007.0
20260508061115 95 154 1.7 4.3 0.00 0.00 0.00 53 1007.0
20260508060614 95 95 2.6 5.2 0.00 0.00 0.00 52 1007.0
20260508060114 94 298 6.1 6.1 0.00 0.00 0.00 54 1007.0
20260508055614 94 80 1.7 1.7 0.00 0.00 0.00 54 1007.0
20260508055114 94 56 1.7 2.6 0.00 0.00 0.00 55 1007.0
20260508054615 93 219 6.1 7.0 0.00 0.00 0.00 56 1007.0
20260508054114 91 176 4.3 6.1 0.00 0.00 0.00 60 1007.0
20260508053614 91 185 2.6 6.1 0.00 0.00 0.00 59 1007.0
20260508053115 92 201 7.0 8.7 0.00 0.00 0.00 57 1007.0
20260508052615 91 65 2.6 2.6 0.00 0.00 0.00 62 1007.0
20260508052114 91 80 0.9 0.9 0.00 0.00 0.00 61 1007.0
20260508051614 91 294 3.5 5.2 0.00 0.00 0.00 62 1007.0
20260508051114 92 93 0.9 1.7 0.00 0.00 0.00 59 1007.0
20260508050614 93 66 0.9 0.9 0.00 0.00 0.00 57 1007.0
20260508050114 91 76 2.6 2.6 0.00 0.00 0.00 61 1007.0
20260508045614 90 96 3.5 5.2 0.00 0.00 0.00 64 1007.0
20260508045115 90 120 2.6 4.3 0.00 0.00 0.00 62 1007.0
20260508044614 90 146 3.5 5.2 0.00 0.00 0.00 64 1008.0
20260508044114 89 233 5.2 6.1 0.00 0.00 0.00 65 1008.0
20260508043615 89 176 4.3 7.0 0.00 0.00 0.00 66 1008.0
20260508043114 90 209 2.6 5.2 0.00 0.00 0.00 64 1008.0
20260508042614 90 147 5.2 6.1 0.00 0.00 0.00 63 1008.0
20260508042114 90 95 2.6 2.6 0.00 0.00 0.00 65 1008.0
20260508041614 90 32 2.6 4.3 0.00 0.00 0.00 65 1008.0
20260508041114 89 318 4.3 5.2 0.00 0.00 0.00 64 1008.0
20260508040614 90 343 1.7 1.7 0.00 0.00 0.00 62 1008.0
20260508040115 91 142 2.6 2.6 0.00 0.00 0.00 63 1008.0
20260508035614 90 67 2.6 4.3 0.00 0.00 0.00 65 1008.0
20260508035114 91 274 2.6 4.3 0.00 0.00 0.00 63 1008.0
20260508034614 89 79 3.5 5.2 0.00 0.00 0.00 66 1008.0